This demonstration page uses our WeatherBlox Daily Observations layout. Learn more.

Left ArrowRight Arrow

39.08367, -84.50855

Hourly Observations for June 26, 2020

Temp ( °F °C ) Dew Point ( °F °C ) Humidity (%) Winds ( mph kmh ) Pressure ( in mb ) Visibility ( mi km ) Precip ( " mm )
12:53 am 00:53 Clear 64 17.8 60 15.6 87 87 Calm 30.06 1018 10 16.0934 0 0
1:53 am 01:53 Clear 62 16.7 60 15.6 93 93 Calm 30.06 1018 10 16.0934 0 0
2:53 am 02:53 Clear 62 16.7 60 15.6 93 93 Calm 30.07 1018 10 16.0934 0 0
3:53 am 03:53 Clear 61 16.1 59 15 93 93 Calm 30.07 1018 10 16.0934 0 0
4:50 am 04:50 Clear with Mist and Fog 61 16 57 14 88 88 Calm 30.08 1018 1.75 2.816345 0 0
4:53 am 04:53 Clear with Mist and Fog 60 15.6 58 14.4 93 93 Calm 30.07 1018 1.25 2.011675 0 0
5:00 am 05:00 Clear with Mist and Fog 61 16.1 59 15 93 93 Calm 30.08 1018 3 4.82802 0 0
5:21 am 05:21 Clear with Mist and Fog 61 16.1 59 15 93 93 Calm 30.08 1018 1.5 2.41401 0 0
5:29 am 05:29 Partly Cloudy with Mist and Fog 60 15.6 58 14.4 93 93 Calm 30.08 1019 0.75 1.207005 0 0
5:33 am 05:33 Partly Cloudy with Mist and Fog 60 15.6 58 14.4 93 93 Calm 30.08 1019 3 4.82802 0 0
5:53 am 05:53 Mostly Clear with Mist and Fog 60 15.6 59 15 96 96 Calm 30.07 1018 4 6.43736 0 0
6:53 am 06:53 Cloudy 63 17.2 62 16.7 97 97 Calm 30.08 1019 9 14.48406 0 0
7:53 am 07:53 Mostly Cloudy 66 18.9 63 17.2 90 90 Calm 30.09 1019 10 16.0934 0.001 0.001
8:53 am 08:53 Partly Cloudy 71 21.7 64 17.8 79 79 S 6 9 30.09 1019 10 16.0934 0 0
9:53 am 09:53 Partly Cloudy 77 25 66 18.9 69 69 S 8 13 30.08 1019 10 16.0934 0 0
10:53 am 10:53 Sunny 82 27.8 65 18.3 56 56 SW 10 17 30.06 1018 10 16.0934 0 0
11:53 am 11:53 Mostly Sunny 85 29.4 66 18.9 53 53 W 14 22 30.04 1017 10 16.0934 0 0
12:53 pm 12:53 Mostly Cloudy 84 28.9 67 19.4 57 57 WSW 17 28 30.04 1017 10 16.0934 0 0
1:53 pm 13:53 Mostly Cloudy 85 29.4 66 18.9 53 53 SW 13 20 30.03 1017 10 16.0934 0 0
2:53 pm 14:53 Mostly Cloudy with Light Rain 81 27.2 66 18.9 61 61 SW 13 20 30.04 1017 10 16.0934 0.001 0.001
3:46 pm 15:46 Cloudy with Heavy Rain 73 22.8 69 20.6 87 87 SW 12 19 30.04 1017 0.75 1.207005 0.6 15.24
3:53 pm 15:53 Cloudy with Heavy Rain 72 22.2 70 21.1 94 94 SE 10 17 30.04 1017 1.25 2.011675 0.67 17.018
4:05 pm 16:05 Cloudy with Mist and Fog 74 23.3 70 21.1 88 88 Calm 30.02 1017 4 6.43736 0.001 0.001
4:53 pm 16:53 Mostly Cloudy 76 24.4 72 22.2 88 88 SSW 3 6 30.02 1017 10 16.0934 0.001 0.001
5:53 pm 17:53 Mostly Sunny 78 25.6 72 22.2 82 82 Calm 30 1016 10 16.0934 0 0
6:53 pm 18:53 Sunny 81 27.2 73 22.8 77 77 S 8 13 29.96 1015 10 16.0934 0 0
7:53 pm 19:53 Sunny 81 27.2 69 20.6 67 67 SW 13 20 29.96 1015 10 16.0934 0 0
8:53 pm 20:53 Sunny 77 25 68 20 74 74 SSW 9 15 29.95 1014 10 16.0934 0 0
9:53 pm 21:53 Clear 76 24.4 66 18.9 72 72 S 8 13 29.94 1014 10 16.0934 0 0
10:53 pm 22:53 Clear 75 23.9 67 19.4 76 76 SSW 7 11 29.95 1014 10 16.0934 0 0
11:53 pm 23:53 Clear 72 22.2 66 18.9 82 82 SSW 8 13 29.96 1014 10 16.0934 0 0

Powered by AerisWeather